THY854 LTAN-LTFM

Flight info

Callsign THY854
Flight time N/A
Altitude 36000
Route HISAR UL620 OSVEL UT337 KFK UM855 SISPI
Aircraft A319/M-SDE3FGHIRWY/LB1

Departure

Time N/A
Airport Konya Airport (LTAN)

Arrival

Time 2026-04-30 21:09
Airport İstanbul Airport (LTFM)
Time Latitude Longitude Altitude Speed Heading
2026-04-30 20:27 38.77152 30.59884 36075 ft 418 kts 313°
2026-04-30 20:28 38.86456 30.50941 36084 ft 422 kts 327°
2026-04-30 20:30 38.99583 30.42420 36073 ft 424 kts 330°
2026-04-30 20:31 39.15414 30.32255 36063 ft 423 kts 329°
2026-04-30 20:32 39.28532 30.23776 36061 ft 422 kts 329°
2026-04-30 20:33 39.36398 30.18680 36058 ft 422 kts 329°
2026-04-30 20:34 39.44266 30.13569 36052 ft 422 kts 329°
2026-04-30 20:34 39.49641 30.10400 35823 ft 424 kts 332°
2026-04-30 20:35 39.52345 30.08900 35595 ft 422 kts 332°
2026-04-30 20:35 39.55037 30.07408 35367 ft 419 kts 332°
2026-04-30 20:35 39.60320 30.04470 34909 ft 414 kts 332°
2026-04-30 20:36 39.62989 30.02981 34678 ft 414 kts 332°
2026-04-30 20:36 39.65625 30.01507 34426 ft 413 kts 332°
2026-04-30 20:36 39.70878 29.98569 33890 ft 414 kts 332°
2026-04-30 20:37 39.73523 29.97086 33530 ft 416 kts 332°
2026-04-30 20:37 39.76197 29.95586 33063 ft 417 kts 332°
2026-04-30 20:37 39.78840 29.94104 32490 ft 418 kts 332°
2026-04-30 20:37 39.81524 29.92595 31852 ft 418 kts 332°
2026-04-30 20:38 39.84165 29.91109 31213 ft 419 kts 332°
2026-04-30 20:38 39.86829 29.89613 30606 ft 419 kts 333°
2026-04-30 20:38 39.89581 29.88330 30114 ft 419 kts 339°
2026-04-30 20:39 39.95280 29.87020 29211 ft 418 kts 352°
2026-04-30 20:39 39.98195 29.86922 28768 ft 415 kts 355°
2026-04-30 20:39 40.01068 29.86928 28333 ft 412 kts 355°
2026-04-30 20:40 40.06723 29.86951 27433 ft 405 kts 355°
2026-04-30 20:40 40.09537 29.86953 26988 ft 402 kts 355°
2026-04-30 20:40 40.12295 29.86953 26554 ft 398 kts 355°
2026-04-30 20:41 40.17796 29.86947 25693 ft 392 kts 355°
2026-04-30 20:41 40.20518 29.86944 25271 ft 389 kts 355°
2026-04-30 20:41 40.23210 29.86940 24862 ft 386 kts 355°
2026-04-30 20:41 40.25883 29.86936 24457 ft 383 kts 354°
2026-04-30 20:42 40.28535 29.86931 24043 ft 380 kts 354°
2026-04-30 20:42 40.31164 29.86925 23633 ft 378 kts 354°
2026-04-30 20:42 40.36360 29.86913 22816 ft 374 kts 354°
2026-04-30 20:43 40.38958 29.86970 22408 ft 375 kts
2026-04-30 20:43 40.41518 29.87686 21984 ft 382 kts 15°
2026-04-30 20:43 40.43930 29.89242 21562 ft 387 kts 29°
2026-04-30 20:44 40.48212 29.93198 21335 ft 367 kts 32°
2026-04-30 20:44 40.50264 29.95120 21236 ft 358 kts 29°
2026-04-30 20:44 40.54820 29.97024 20521 ft 340 kts 356°
2026-04-30 20:45 40.59517 29.96975 19823 ft 336 kts 353°
2026-04-30 20:45 40.61853 29.96931 19481 ft 335 kts 353°
2026-04-30 20:45 40.64203 29.96912 19151 ft 335 kts 354°
2026-04-30 20:46 40.70914 29.95399 18109 ft 321 kts 334°
2026-04-30 20:46 40.73037 29.94408 17762 ft 321 kts 334°
2026-04-30 20:47 40.77223 29.92430 17075 ft 320 kts 334°
2026-04-30 20:47 40.79315 29.91453 16713 ft 319 kts 334°
2026-04-30 20:48 40.83475 29.89518 16068 ft 316 kts 332°
2026-04-30 20:48 40.85296 29.88084 16017 ft 302 kts 309°
2026-04-30 20:48 40.86489 29.85855 15710 ft 291 kts 287°
2026-04-30 20:48 40.86884 29.83326 15347 ft 283 kts 268°
2026-04-30 20:49 40.86855 29.80734 14996 ft 282 kts 265°
2026-04-30 20:49 40.86803 29.78171 14648 ft 281 kts 266°
2026-04-30 20:49 40.86759 29.75577 14312 ft 280 kts 266°
2026-04-30 20:50 40.86687 29.70462 13635 ft 279 kts 266°
2026-04-30 20:50 40.86652 29.67896 13293 ft 278 kts 266°
2026-04-30 20:50 40.86649 29.65379 12973 ft 277 kts 269°
2026-04-30 20:50 40.86779 29.62846 12631 ft 277 kts 273°
2026-04-30 20:51 40.87026 29.60321 12314 ft 277 kts 274°
2026-04-30 20:51 40.87548 29.55307 11644 ft 274 kts 274°
2026-04-30 20:51 40.87806 29.52831 11299 ft 274 kts 274°
2026-04-30 20:52 40.88096 29.50358 10995 ft 273 kts 281°
2026-04-30 20:52 40.88902 29.48082 10796 ft 273 kts 295°
2026-04-30 20:52 40.89588 29.43516 10344 ft 250 kts 262°
2026-04-30 20:53 40.89421 29.41242 10159 ft 244 kts 263°
2026-04-30 20:53 40.89333 29.39031 10017 ft 242 kts 265°
2026-04-30 20:53 40.89321 29.36796 9872 ft 242 kts 268°
2026-04-30 20:54 40.89439 29.32366 9446 ft 242 kts 269°
2026-04-30 20:54 40.89535 29.30169 9180 ft 241 kts 270°
2026-04-30 20:54 40.89645 29.27955 8905 ft 241 kts 270°
2026-04-30 20:55 40.89883 29.23540 8340 ft 242 kts 271°
2026-04-30 20:55 40.90005 29.21346 8058 ft 242 kts 272°
2026-04-30 20:55 40.90131 29.19135 7781 ft 242 kts 272°
2026-04-30 20:56 40.90385 29.14690 7229 ft 242 kts 272°
2026-04-30 20:56 40.90510 29.12483 6960 ft 242 kts 272°
2026-04-30 20:56 40.90762 29.08031 6418 ft 242 kts 273°
2026-04-30 20:57 40.90887 29.05807 6147 ft 241 kts 273°
2026-04-30 20:57 40.91008 29.03637 5904 ft 238 kts 274°
2026-04-30 20:57 40.91072 29.01472 5915 ft 232 kts 266°
2026-04-30 20:58 40.90415 28.97290 5948 ft 233 kts 254°
2026-04-30 20:58 40.89970 28.95234 5954 ft 234 kts 254°
2026-04-30 20:58 40.89521 28.93152 5958 ft 235 kts 254°
2026-04-30 20:58 40.89084 28.91108 5959 ft 235 kts 255°
2026-04-30 20:59 40.88205 28.86949 5954 ft 234 kts 255°
2026-04-30 20:59 40.87770 28.84884 5954 ft 234 kts 255°
2026-04-30 21:00 40.87908 28.80813 5953 ft 223 kts 303°
2026-04-30 21:00 40.90365 28.78585 6084 ft 216 kts 333°
2026-04-30 21:01 40.93055 28.76874 5847 ft 216 kts 330°
2026-04-30 21:01 40.94312 28.75917 5707 ft 215 kts 329°
2026-04-30 21:01 40.96871 28.74161 5264 ft 204 kts 339°
2026-04-30 21:02 40.98221 28.73604 5013 ft 199 kts 349°
2026-04-30 21:02 40.99561 28.73358 4965 ft 192 kts 356°
2026-04-30 21:02 41.00900 28.73275 4959 ft 193 kts 359°
2026-04-30 21:02 41.02234 28.73241 4946 ft 193 kts 360°
2026-04-30 21:03 41.03590 28.73216 4761 ft 193 kts 360°
2026-04-30 21:03 41.04929 28.73192 4502 ft 191 kts
2026-04-30 21:03 41.06238 28.73167 4281 ft 185 kts
2026-04-30 21:03 41.07513 28.73141 4027 ft 181 kts
2026-04-30 21:04 41.08767 28.73116 3777 ft 176 kts
2026-04-30 21:04 41.09977 28.73091 3536 ft 171 kts
2026-04-30 21:04 41.12269 28.73043 3081 ft 162 kts
2026-04-30 21:05 41.13374 28.73020 2864 ft 157 kts
2026-04-30 21:05 41.14422 28.72997 2660 ft 144 kts
2026-04-30 21:05 41.15378 28.72976 2446 ft 131 kts
2026-04-30 21:05 41.16271 28.72957 2273 ft 127 kts
2026-04-30 21:06 41.17156 28.72944 2101 ft 126 kts
2026-04-30 21:06 41.18033 28.72928 1935 ft 125 kts
2026-04-30 21:06 41.18907 28.72912 1769 ft 125 kts
2026-04-30 21:06 41.19770 28.72895 1607 ft 124 kts
2026-04-30 21:07 41.20641 28.72878 1451 ft 124 kts
2026-04-30 21:07 41.21502 28.72861 1282 ft 125 kts
2026-04-30 21:07 41.22372 28.72845 1119 ft 125 kts
2026-04-30 21:07 41.23244 28.72828 947 ft 125 kts
2026-04-30 21:08 41.24117 28.72792 755 ft 126 kts
2026-04-30 21:08 41.24987 28.72792 573 ft 125 kts
2026-04-30 21:08 41.25864 28.72771 433 ft 126 kts
2026-04-30 21:08 41.26745 28.72767 336 ft 125 kts 358°
2026-04-30 21:09 41.27449 28.72752 334 ft 76 kts 355°
2026-04-30 21:09 41.27827 28.72748 334 ft 42 kts
2026-04-30 21:09 41.28042 28.72818 334 ft 25 kts 29°
2026-04-30 21:09 41.28114 28.72954 334 ft 18 kts 137°
2026-04-30 21:10 41.27985 28.72968 334 ft 19 kts 179°
2026-04-30 21:10 41.27848 28.72970 334 ft 19 kts 179°
2026-04-30 21:10 41.27709 28.72973 334 ft 20 kts 179°
2026-04-30 21:10 41.27568 28.72979 334 ft 20 kts 180°
2026-04-30 21:11 41.27423 28.72978 334 ft 20 kts 179°
2026-04-30 21:11 41.27277 28.72982 334 ft 21 kts 179°
2026-04-30 21:11 41.27129 28.72986 334 ft 21 kts 180°
2026-04-30 21:11 41.27002 28.72988 334 ft 13 kts 179°
2026-04-30 21:12 41.26944 28.73069 334 ft 14 kts 90°
2026-04-30 21:12 41.26946 28.73205 334 ft 15 kts 88°
2026-04-30 21:12 41.26950 28.73349 334 ft 16 kts 90°
2026-04-30 21:12 41.26951 28.73538 334 ft 21 kts 89°
2026-04-30 21:13 41.26953 28.73732 334 ft 20 kts 90°
2026-04-30 21:13 41.26955 28.73920 334 ft 20 kts 89°
2026-04-30 21:13 41.26955 28.74107 334 ft 20 kts 90°
2026-04-30 21:13 41.26957 28.74296 334 ft 20 kts 88°
2026-04-30 21:14 41.26961 28.74458 334 ft 17 kts 90°
2026-04-30 21:14 41.26963 28.74623 334 ft 18 kts 90°
2026-04-30 21:14 41.26963 28.74794 334 ft 18 kts 89°
2026-04-30 21:14 41.26966 28.74961 334 ft 18 kts 89°
2026-04-30 21:15 41.26962 28.75111 334 ft 14 kts 117°
2026-04-30 21:15 41.26865 28.75148 334 ft 15 kts 181°
2026-04-30 21:15 41.26752 28.75150 334 ft 16 kts 179°
2026-04-30 21:15 41.26639 28.75147 334 ft 16 kts 191°
2026-04-30 21:16 41.26526 28.75104 334 ft 17 kts 197°
2026-04-30 21:16 41.26407 28.75056 334 ft 18 kts 197°
2026-04-30 21:16 41.26282 28.75006 334 ft 19 kts 197°
2026-04-30 21:16 41.26156 28.74995 334 ft 18 kts 161°
2026-04-30 21:17 41.26032 28.75050 334 ft 18 kts 162°
2026-04-30 21:17 41.25912 28.75105 334 ft 17 kts 161°
2026-04-30 21:17 41.25801 28.75154 334 ft 15 kts 166°
2026-04-30 21:17 41.25697 28.75162 334 ft 13 kts 179°
2026-04-30 21:18 41.25632 28.75115 333 ft 11 kts 264°
2026-04-30 21:18 41.25644 28.75030 333 ft 8 kts 313°
2026-04-30 21:18 41.25703 28.75027 334 ft 11 kts
2026-04-30 21:18 41.25748 28.75027 333 ft 1 kts 358°
2026-04-30 21:19 41.25724 28.75028 333 ft 0 kts 359°
2026-04-30 21:19 41.25735 28.75028 334 ft 0 kts 359°